Location: Appeville
(49.3218°N, 1.3427°W)
Time: 19:43:48
(UTC+00:00)

Timation 1 Rocket - Pass Details

Date: 08 December 2019
Orbit: 897 x 910 km, 70.0° (Epoch: 21 January)

Event Time Altitude Azimuth Distance (km) Brightness Sun altitude
Rises 06:06:33 0° 204° (SSW) 3,501 7.3 -15.5°
Reaches altitude 10° 06:09:02 10° 204° (SSW) 2,565 6.6 -15.1°
Maximum altitude 06:14:57 81° 118° (ESE) 915 4.4 -14.2°
Drops below altitude 10° 06:20:57 10° 32° (NNE) 2,588 6.9 -13.3°
Sets 06:23:27 0° 32° (NNE) 3,534 7.6 -12.9°
